CZ-2C R/B

Satellite information

Favourite Embed

Satellite Type and Status

ROCKET BODYIN ORBIT

Key statistics

Satellite CZ-2C R/B at a glance.

Uptime

2654

Days in orbit

Revolutions

≈ 14.6

Per day

Orbit

SSO

Sun Synchronous Orbit

Inclination

98.7

Latest

Satellite identification and parameters

Extended collection of information and parameters for CZ-2C R/B.

Object identification

Identified? True

Debris? False

Object name: CZ-2C R/B

International designator: 2018-068B

Object number (NORAD): 43610

Object ID (CCSDS): 43610

Country: PEOPLES REPUBLIC OF CHINA (PRC)

Current information (Y/N): Y

RCS size: LARGE

Orbital parameters

Period: 98.871 minutes

Inclination: 98.726 deg

SMA: 7082.811 km

Apoapsis: 765.839 km

Periapsis: 643.513 km

RAAN: 177.9452 deg

Eccentricy: 0.00863539

Argument of periapsis: 200.3101 deg

Mean anomaly: 159.4654 deg

Mean motion: 14.56445663 rev/day

Mean motion (dot): 0.00000818 rev/day2

B* drag term: 0.00018681583 1/REarth

Two-line elements (TLE)

Creation date: Dec. 12, 2025, 10:14 a.m.

Reference frame: TEME

Reference center: EARTH

Epoch: Dec. 12, 2025, 6:09 a.m. UTC

TLE line 0: 0 CZ-2C R/B

TLE line 1: 1 43610U 18068B 25346.25688367 .00000818 00000-0 18682-3 0 9997

TLE line 2: 2 43610 98.7260 177.9452 0086354 200.3101 159.4654 14.56445663385684

Live tracking on map

Real-time ground track for satellite CZ-2C R/B.

In-orbit conjunctions

A list of the most updated potential collisions computed for object CZ-2C R/B.

Target Orbit TCA Probability of collision Miss distance Type
FENGYUN 1C DEB SSO 2025-11-12 02:54:07 0.0001118722 700.0 (m) DEBRIS
CZ-6A DEB LEO 2025-10-12 10:43:56 0.0003463975 62.0 (m) DEBRIS
CZ-6A DEB SSO 2025-05-11 00:28:49 0.0001783065 235.0 (m) DEBRIS
COSMOS 2251 DEB LEO 2025-05-06 13:42:17 0.0001580168 729.0 (m) DEBRIS
CZ-6A DEB LEO 2024-12-19 01:42:43 0.0003918152 966.0 (m) DEBRIS

Associated space launch

Haiyang is a series of Chinese marine remote sensing satellites. Haiyang 1C is the follow-up of the Haiyang 1A and 1B satellites. It is intended for ocean monitoring and will be providing data on the temperature and dynamics of coastal waters and global oceans in China.

CZ-2C R/B was lifted into orbit during the mission ‘Long March 2C | Haiyang 1C’, on board a Long March 2 space rocket.

The launch took place on Sept. 7, 2018, 3:15 a.m. from Launch Complex 9.

For more information about the launch, click the button.

Launch to space Long March 2C | Haiyang 1C
Long March 2C | Haiyang 1C

Agency: N/A

Status: Launch Successful

Launch date: Sept. 7, 2018, 3:15 a.m. UTC

Rocket: Long March 2

Launch pad: Launch Complex 9

Location: Taiyuan Satellite Launch Center, People's Republic of China

...

Latest news about this satellite

There are no fresh news available about this satellite. Check back as we update our databases every day.


Newsletter sign-up

Weekly statistics, charts and insights to help you stay on top of the space industry.